EW2108 Weather Reports


Display with metric or nautical units.
time (UTC)temp
F
wind
direction
speed
MPH
gust
MPH
rain 1hr
in
rain 24hr
in
rain mn
in
humidity
%
barometer
mb
20260510073007 68 193 1.0 8.0 0.00 0.00 0.00 77 1028.9
20260510071508 68 144 2.0 4.0 0.00 0.00 0.00 77 1028.7
20260510070005 68 136 1.0 9.0 0.00 0.00 0.00 76 1028.6
20260510064547 68 138 3.0 10.0 0.00 0.00 0.00 76 1028.4
20260510063003 68 141 4.0 9.0 0.00 0.00 0.00 76 1028.2
20260510061535 68 140 2.0 7.0 0.00 0.00 0.00 76 1028.0
20260510060101 68 198 3.0 9.0 0.00 0.00 0.00 76 1027.9
20260510054559 69 141 3.0 9.0 0.00 0.00 0.00 75 1027.8
20260510054529 69 150 2.0 8.0 0.00 0.00 0.00 75 1027.7
20260510053115 69 140 4.0 10.0 0.00 0.00 0.00 74 1027.7
20260510051605 70 134 5.0 10.0 0.00 0.00 0.00 73 1027.5
20260510050110 69 126 2.0 10.0 0.00 0.00 0.00 72 1027.4
20260510044605 69 132 3.0 12.0 0.00 0.00 0.00 71 1027.3
20260510043058 69 132 7.0 10.0 0.00 0.00 0.00 69 1027.3
20260510043024 69 133 6.0 10.0 0.00 0.00 0.00 69 1027.4
20260510041558 70 132 4.0 11.0 0.00 0.00 0.00 68 1027.3
20260510040052 71 182 1.0 7.0 0.00 0.00 0.00 65 1027.2
20260510034550 71 140 3.0 7.0 0.00 0.00 0.00 66 1027.3
20260510033058 71 131 3.0 10.0 0.00 0.00 0.00 65 1027.3
20260510031548 72 146 3.0 7.0 0.00 0.00 0.00 61 1027.4
20260510030100 72 143 2.0 9.0 0.00 0.00 0.00 62 1027.4
20260510024642 71 135 2.0 7.0 0.00 0.00 0.00 63 1027.6
20260510023042 71 188 3.0 10.0 0.00 0.00 0.00 64 1027.8
20260510021539 71 131 2.0 8.0 0.00 0.00 0.00 64 1027.9
20260510020037 70 150 2.0 10.0 0.00 0.00 0.00 63 1028.2
20260510014539 71 147 4.0 9.0 0.00 0.00 0.00 62 1028.3
20260510013035 70 144 4.0 9.0 0.00 0.00 0.00 63 1028.4
20260510011531 70 142 3.0 9.0 0.00 0.00 0.00 66 1028.8
20260510010027 71 165 1.0 7.0 0.00 0.00 0.00 63 1028.9
20260510004521 69 182 3.0 6.0 0.00 0.00 0.00 66 1029.0
20260510003017 68 166 3.0 6.0 0.00 0.00 0.00 67 1029.1
20260510001545 68 166 3.0 7.0 0.00 0.00 0.00 69 1029.0
20260510000049 67 159 2.0 5.0 0.00 0.00 0.00 71 1028.9
20260509234552 66 159 2.0 7.0 0.00 0.00 0.00 73 1028.9
20260509233036 65 151 1.0 5.0 0.00 0.00 0.00 77 1028.6
20260509231532 63 138 0.0 3.0 0.00 0.00 0.00 81 1028.6
20260509230025 61 134 0.0 4.0 0.00 0.00 0.00 86 1028.5
20260509224521 59 134 1.0 3.0 0.00 0.00 0.00 91 1028.5
20260509223019 58 134 0.0 2.0 0.00 0.00 0.00 94 1028.5
20260509221515 57 134 0.0 2.0 0.00 0.00 0.00 95 1028.5
20260509220010 56 134 0.0 1.0 0.00 0.00 0.00 95 1028.3
20260509214507 55 134 0.0 3.0 0.00 0.00 0.00 95 1028.1
20260509213006 55 134 0.0 0.0 0.00 0.00 0.00 95 1028.0
20260509211532 54 134 0.0 0.0 0.00 0.00 0.00 95 1027.9
20260509210000 53 134 0.0 0.0 0.00 0.00 0.00 95 1027.7
20260509204557 53 134 0.0 0.0 0.00 0.00 0.00 95 1027.5
20260509203104 53 134 0.0 0.0 0.00 0.00 0.00 95 1027.4
20260509201602 53 134 0.0 0.0 0.00 0.00 0.00 94 1027.4
20260509200106 53 134 0.0 0.0 0.00 0.00 0.00 94 1027.1
20260509194549 53 134 0.0 0.0 0.00 0.00 0.00 94 1026.9
20260509193109 52 134 0.0 0.0 0.00 0.00 0.00 94 1026.7
20260509190043 52 134 0.0 0.0 0.00 0.00 0.00 94 1026.4
20260509184553 52 134 0.0 0.0 0.00 0.00 0.00 94 1026.3
20260509183041 53 134 0.0 0.0 0.00 0.00 0.00 94 1026.1
20260509181535 53 134 0.0 0.0 0.00 0.00 0.00 94 1026.1
20260509180032 53 134 0.0 0.0 0.00 0.00 0.00 94 1026.0
20260509174526 53 134 0.0 0.0 0.00 0.00 0.00 94 1025.9
20260509173025 53 134 0.0 1.0 0.00 0.00 0.00 94 1025.9
20260509171536 54 134 0.0 1.0 0.00 0.00 0.00 94 1026.0
20260509170023 54 134 0.0 0.0 0.00 0.00 0.00 94 1025.9
20260509164522 54 134 0.0 1.0 0.00 0.00 0.00 94 1025.9
20260509163151 53 134 0.0 1.0 0.00 0.00 0.00 93 1026.0
20260509161519 54 134 0.0 0.0 0.00 0.00 0.00 93 1025.9
20260509160020 54 134 0.0 2.0 0.00 0.00 0.00 94 1025.9
20260509154519 54 134 0.0 0.0 0.00 0.00 0.00 94 1025.9
20260509153016 54 134 0.0 0.0 0.00 0.00 0.00 93 1026.0
20260509151514 54 134 0.0 1.0 0.00 0.00 0.00 93 1025.9
20260509150014 54 134 0.0 0.0 0.00 0.00 0.00 93 1025.9
20260509144517 55 134 0.0 0.0 0.00 0.00 0.00 93 1025.9
20260509143011 55 134 0.0 0.0 0.00 0.00 0.00 93 1025.9
20260509141519 55 134 0.0 0.0 0.00 0.00 0.00 93 1025.6
20260509140006 55 134 0.0 0.0 0.00 0.00 0.00 92 1025.6
20260509134506 55 134 0.0 0.0 0.00 0.00 0.00 92 1025.6
20260509133005 55 134 0.0 0.0 0.00 0.00 0.00 92 1025.7
20260509131506 55 134 0.0 2.0 0.00 0.00 0.00 91 1025.8
20260509130003 56 134 0.0 0.0 0.00 0.00 0.00 91 1025.7
20260509124503 56 134 0.0 0.0 0.00 0.00 0.00 91 1025.8
20260509123002 56 134 0.0 0.0 0.00 0.00 0.00 90 1025.8
20260509121504 56 134 0.0 0.0 0.00 0.00 0.00 90 1025.8
20260509120108 57 134 0.0 0.0 0.00 0.00 0.00 90 1025.9
20260509113058 57 134 0.0 2.0 0.00 0.00 0.00 88 1025.8
20260509111557 57 134 0.0 1.0 0.00 0.00 0.00 87 1025.9
20260509110056 57 134 0.0 0.0 0.00 0.00 0.00 86 1025.8
20260509110025 57 134 0.0 0.0 0.00 0.00 0.00 86 1025.8
20260509104554 58 134 0.0 1.0 0.00 0.00 0.00 84 1025.8
20260509103052 58 134 0.0 1.0 0.00 0.00 0.00 83 1025.7
20260509101552 58 134 0.0 1.0 0.00 0.00 0.00 82 1025.6
20260509100055 58 134 0.0 0.0 0.00 0.00 0.00 81 1025.5
20260509094551 59 134 0.0 0.0 0.00 0.00 0.00 78 1025.5
20260509093046 60 134 0.0 0.0 0.00 0.00 0.00 76 1025.4
20260509091545 61 134 0.0 2.0 0.00 0.00 0.00 75 1025.3
20260509090045 61 134 1.0 2.0 0.00 0.00 0.00 75 1025.1
20260509084542 61 134 0.0 2.0 0.00 0.00 0.00 74 1025.0
20260509083042 62 134 0.0 1.0 0.00 0.00 0.00 74 1024.9
20260509081546 62 134 1.0 2.0 0.00 0.00 0.00 73 1024.7
20260509080042 62 134 0.0 1.0 0.00 0.00 0.00 73 1024.5
20260509074539 63 134 0.0 2.0 0.00 0.00 0.00 73 1024.3